www.pogodaiklimat.ru

АРХИВ ПОГОДЫ в Краснодаре

Время (UTC), дата Ветер
(напр.,м/с)
 
Видим.   Явления Облачность Т
(С)
Тd
(С)
f
(%)
Тe
(С)
Тes
(С)
Комфортность P
(гПа)
Po
(гПа)
Тmin
(С)
Tmax
(С)
R
(мм)
S
(см)
06 15.10 штиль 0 4000 м дымка 8/3 1000 м
[Sc Ac trans]
+14.8 +9.0 68 +15 +16 тепло 1015.6 1012.0 +10.8
09 15.10 С 1 10 км 8/3 1500 м
[Sc Ac trans Ci fib]
+20.9 +10.4 51 +24 +28 комфорт 1014.9 1011.4
12 15.10 З 1 10 км 9/9 1000 м
[Cb cap]
+22.4 +9.9 45 +24 +24 комфорт 1014.1 1010.6
15 15.10 З 2 10 км 10/10 1000 м
[Cb cap]
+20.2 +10.1 52 +22 +22 комфорт 1014.3 1010.8 +23.3
18 15.10 ЮЗ 1 4000 м слабый ливневой дождь 10/10 600 м
[Cb cap]
+15.7 +13.0 84 +16 +16 тепло 1015.1 1011.5
21 15.10 З 1 10 км в посл. час ливневой дождь 10/10 1000 м
[Cb cap]
+14.8 +12.9 88 +15 +15 тепло 1015.3 1011.7
00 16.10 В 1 10 км {ливн. осадки} 9/9 1000 м
[Sc diur, vesp]
+14.3 +13.0 92 +15 +15 тепло 1014.9 1011.3
03 16.10 штиль 0 4000 м дымка 10/10 600 м
[Sc]
+14.2 +13.1 93 +14 +14 тепло 1014.8 1011.2 +14.2 8
06 16.10 Ю 1 2000 м в посл. час ливневой дождь 9/8 600 м
[Cb cap Ac trans]
+15.6 +14.5 93 +16 +16 тепло 1015.1 1011.5
09 16.10 ЮЗ 2 10 км 9/5 1000 м
[Cb cap Ac trans]
+20.1 +15.6 75 +23 +25 комфорт 1014.4 1010.9
12 16.10 Ю 3 10 км 6/6 1000 м
[Cb cap]
+21.7 +12.1 54 +24 +25 комфорт 1013.1 1009.6
15 16.10 Ю 2 10 км 3/0
[Ci fib]
+18.6 +12.4 67 +20 +20 тепло 1012.4 1008.8 +22.1 1
18 16.10 Ю 1 10 км ясно +16.8 +13.3 80 +18 +18 тепло 1011.3 1007.8
21 16.10 Ю 1 10 км слабый ливневой дождь 10/8 1000 м
[Cb cap Ac und]
+17.3 +13.5 78 +18 +18 тепло 1010.1 1006.6
00 17.10 Ю 2 10 км слабый ливневой дождь 10/8 1000 м
[Cb cap Ac und]
+16.6 +15.5 93 +17 +17 тепло 1008.3 1004.8
03 17.10 Ю 2 4000 м слабый ливневой дождь 10/10 600 м
[Cb cap]
+16.5 +15.0 91 +17 +17 тепло 1006.8 1003.3 +15.3 5
06 17.10 ЮЗ 2 4000 м слабый ливневой дождь 10/10 600 м
[Cb cap]
+16.4 +15.4 94 +16 +16 тепло 1007.2 1003.6
09 17.10 ЮЗ 2 4000 м слабый ливневой дождь 10/10 600 м
[Cb cap]
+15.4 +14.5 94 +15 +15 тепло 1008.0 1004.5
12 17.10 З 3 10 км {ливн. осадки} 10/10 600 м
[Cb cap]
+15.6 +12.7 83 +15 +15 по сезону 1009.1 1005.5
15 17.10 З 1 10 км {ливн. осадки} 9/9 1000 м
[Cb cap]
+14.1 +10.7 80 +14 +14 по сезону 1010.8 1007.2 +16.6 20
18 17.10 ЮЗ 1 10 км {ливн. осадки} 8/8 600 м
[Cb cap]
+11.9 +10.2 89 +12 +12 по сезону 1011.7 1008.1
21 17.10 Ю 1 4000 м дымка 8/8 600 м
[Cb cap]
+10.5 +9.4 93 +10 +10 по сезону 1011.6 1008.0
00 18.10 Ю 1 4000 м дымка 8/8 600 м
[Cb cap]
+10.6 +8.7 88 +10 +10 по сезону 1010.6 1007.0
03 18.10 Ю 1 4000 м дымка 10/8 600 м
[Cb cap Ac trans]
+11.5 +8.9 84 +11 +11 по сезону 1008.8 1005.2 +9.9
06 18.10 В 1 10 км 10/10 600 м
[Cb cap]
+13.1 +10.7 85 +13 +13 тепло 1007.2 1003.6
09 18.10 СВ 1 10 км слабый ливневой дождь 10/10 600 м
[Cb cap]
+14.0 +12.7 92 +14 +14 по сезону 1005.9 1002.4
12 18.10 В 2 10 км слабый ливневой дождь 10/10 600 м
[Cb cap]
+13.2 +12.3 94 +12 +12 прохладно 1004.1 1000.5
15 18.10 СВ 2 10 км слабый ливневой дождь 10/8 600 м
[Cb cap]
+12.3 +11.6 95 +11 +11 прохладно 1005.0 1001.4 +14.1 30
18 18.10 С 2
{10}
10 км слабый ливневой дождь 10/10 600 м
[Cb cap]
+10.0 +8.3 89 +8 +8 прохладно 1009.0 1005.3
21 18.10 С 2
{10}
10 км {ливн. осадки} 10/10 600 м
[Cb cap]
+7.5 +4.8 83 +5 +5 прохладно 1013.4 1009.7
00 19.10 С 2 10 км 8/8 600 м
[Cb cap]
+5.5 +0.8 72 +3 +3 прохладно 1017.0 1013.2
03 19.10 С 2 10 км 9/8 600 м
[Cb cap Ac trans]
+4.5 -0.4 70 +2 +2 холодно 1019.3 1015.5 +4.5 5
06 19.10 С 1 10 км 10/8 1000 м
[Sc Ac und]
+4.0 -1.4 68 +3 +3 холодно 1022.4 1018.6 +3.9
09 19.10 С 1 10 км 10/5 600 м
[St Ac und]
+4.8 -0.9 67 +4 +5 очень
холодно
1024.2 1020.4
12 19.10 С 2 10 км 10/10 1000 м
[Sc]
+4.7 -1.1 66 +2 +2 очень
холодно
1025.4 1021.6
15 19.10 С 1 10 км 10/10 1000 м
[Sc]
+3.9 -0.7 72 +3 +3 очень
холодно
1027.1 1023.3 +5.6
18 19.10 СВ 1 10 км 10/5 1000 м
[Sc Ac und]
+3.3 -2.3 67 +2 +2 очень
холодно
1028.5 1024.7
21 19.10 СВ 1 10 км 10/6 1000 м
[Sc Ac und]
+2.4 -2.4 71 +1 +1 очень
холодно
1028.4 1024.6
00 20.10 СВ 1 10 км 9/5 1000 м
[Sc Ac trans]
+1.8 -3.0 70 0 0 очень
холодно
1027.4 1023.6
03 20.10 штиль 0 10 км 3/3 1000 м
[Sc]
+0.7 -3.0 76 -0 -0 очень
холодно
1026.6 1022.7 +0.7
06 20.10 штиль 0 10 км 10/1 1000 м
[Sc Ac trans Ci fib]
+5.0 -1.1 65 +4 +6 холодно 1025.6 1021.8 +0.7
09 20.10 ЮЗ 2 10 км 8/3 1000 м
[Sc Ac trans Ci fib]
+8.2 -0.6 54 +7 +10 холодно 1024.1 1020.4
12 20.10 З 3 10 км 3/0
[Ac trans Ci fib]
+12.1 -0.7 41 +11 +13 холодно 1021.5 1017.9
15 20.10 ЮЗ 2 10 км 8/0
[Ac trans Ci fib]
+11.2 +3.4 59 +10 +10 прохладно 1019.4 1015.7 +13.0
18 20.10 ЮЗ 1 10 км ясно +8.4 +3.5 71 +8 +8 прохладно 1018.6 1014.9
21 20.10 З 2 10 км ясно +8.0 +4.0 76 +6 +6 прохладно 1017.7 1014.0
00 21.10 ЮЗ 2 10 км ясно +8.4 +5.0 79 +7 +7 по сезону 1016.1 1012.5
03 21.10 З 2 10 км 4/0
[Ac trans]
+9.2 +5.5 78 +8 +8 по сезону 1015.6 1011.9 +7.4
06 21.10 З 2 10 км 8/6 1000 м
[Sc Ac trans Ci]
+13.3 +6.4 63 +13 +13 тепло 1015.1 1011.5
09 21.10 ЮЗ 4-10
{11}
10 км 8/8 1000 м
[Sc]
+16.2 +3.9 44 +16 +16 тепло 1014.0 1010.4
12 21.10 ЮЗ 5-11
{11}
10 км 3/0
[Ac trans]
+16.6 +5.8 49 +16 +17 по сезону 1013.4 1009.8
15 21.10 ЮЗ 3
{12}
10 км 10/4 1000 м
[Sc Ac und]
+14.1 +6.3 59 +13 +13 по сезону 1012.8 1009.2 +17.1
18 21.10 ЮЗ 3 10 км 10/10 600 м
[Cb cap]
+14.1 +6.4 60 +13 +13 тепло 1012.2 1008.6
21 21.10 ЮЗ 3 10 км 9/9 1000 м
[Sc]
+14.5 +7.1 61 +14 +14 тепло 1011.1 1007.5
00 22.10 Ю 4
{10}
10 км в посл. час ливневой дождь 10/10 600 м
[Sc diur, vesp]
+14.5 +7.7 64 +13 +13 тепло 1008.7 1005.1
03 22.10 ЮЗ 4
{10}
10 км 9/6 1000 м
[Sc Ac trans]
+14.9 +6.9 59 +14 +14 тепло 1010.4 1006.9 +13.9 0.0

 

Обсудить погоду в Краснодаре на МЕТЕОФОРУМЕ

 

Местоположение метеостанции Краснодар (Краснодарский край, Россия): широта 45.03 долгота 39.15 высота над уровнем моря 34 м.

В архиве по умолчанию представлена погода в Краснодаре за последнюю неделю. Архивные данные за месяц целиком и за предыдущие месяцы, начиная с января 2011 года, Вы можете получить, выбрав интересующий диапазон дат из раскрывающегося списка и нажав кнопку "Ввод!".

Внимание! Время в таблицах - всемирное. Для получения местного времени необходимо прибавить поправку, которая в Краснодаре равна 4 ч.

Ветер - указаны скорость ветра в м/с - средняя за 10 мин, порывы в срок и между сроками (в фигурных скобках) и направление, откуда дует ветер: С - северный, СВ - северо-восточный, В - восточный, ЮВ - юго-восточный, Ю - южный, ЮЗ - юго-западный, З - западный, СЗ - северо-западный.
Видимость - горизонтальная дальность видимости в метрах или километрах. При видимости от 1 до 10 км при отсутствии осадков обычно наблюдается дымка, при ухудшении видимости до 1 км и менее - туман. В сухую погоду видимость может ухудшаться дымом, пылью или мглою.
Явления - указаны атсосферные явления, наблюдавшиеся в срок или в последний час перед сроком; фигурными скобками обозначены явления, наблюдавшиеся между сроками (за 1-3 часа до срока); квадратными скобками обозначены град или гололедные отложения с указанием их диаметра в мм.
Облачность - указаны через наклонную черту общая и нижняя облачность в баллах и высота нижней границы облаков в метрах; квадратными скобками обозначены формы облаков: Ci - перистые, Cs - перисто-слоистые, Cc - перисто-кучевые, Ac - высококучевые, As - высокослоистые, Sc - слоисто-кучевые, Ns - слоисто-дождевые, Cu - кучевые, Cb - кучево-дождевые. Подробнее классификацию облаков см. в Атласе облаков (PDF).
T - Температура воздуха - температура, измеренная на высоте 2 м над землей.
Td - Температура точки росы - температура, при понижении до которой содержащийся в воздухе водяной пар достигнет насыщения.
f - Относительная влажность воздуха - влажноcть воздуха, измеренная на высоте 2 м над землей.
Te - Эффективная температура - температура, которую ощущает одетый по сезону человек в тени. Характеристика душности погоды. При расчете учитывается влияние влажности воздуха и скорости ветра на теплоощущения человека.
Tes - Эффективная температура на солнце - температура, которую ощущает человек, с поправкой на солнечный нагрев. Характеристика знойности погоды. Зависит от высоты солнца над горизонтом, облачности и скорости ветра. Ночью, в пасмурную погоду, а также при ветре 12 м/с и более поправка равна нулю.
P - Атмосферное давление - приведенное к уровню моря атмосферное давление.
Po - Атмосферное давление - измеренное на уровне метеостанции атмосферное давление.
Tmin - Минимальная температура - минимум температуры воздуха на высоте 2 м над землей.
Tmax - Максимальная температура - максимум температуры воздуха на высоте 2 м над землей.
R - Количество осадков - Количество выпавших осадков, мм.
S - Снежный покров - Высота снежного покрова, см.